Farmingdale, NY

12:24 PM EDT on April 30, 2017 (GMT -0400)
Republic

Weather History for KFRG - January, 2014

Change the Weather History Date:

Saturday, January 25, 2014

  Actual Average Record
Temperature  
Mean Temperature 24 °F -  
Max Temperature 30 °F 34 °F 50 °F (1997)
Min Temperature 19 °F 21 °F 7 °F (2004)
Degree Days  
Heating Degree Days 40    
Moisture  
Dew Point 17 °F    
Average Humidity 72    
Maximum Humidity 93    
Minimum Humidity 48    
Precipitation  
Precipitation 0.00 in - - ()
Sea Level Pressure  
Sea Level Pressure 29.61 in    
Wind  
Wind Speed 17 mph (WSW)    
Max Wind Speed 26 mph    
Max Gust Speed 38 mph    
Visibility 6 miles    
Events Fog , Snow    
Averages and records for this station are not official NWS values.
T = Trace of Precipitation, MM = Missing Value Source: NWS Daily Summary

Daily Weather History Graph

Daily Weather History Graph

Search for Another Location

Airport or City:

Trip Planner

Search our weather history database for the weather conditions in past years. The results will help you decide how hot, cold, wet, or windy it might be!

Date:

Astronomy

Jan. 25, 2014 Rise Set
Actual Time 7:09 AM EST 5:02 PM EST
Civil Twilight 6:40 AM EST 5:32 PM EST
Nautical Twilight 6:07 AM EST 6:05 PM EST
Astronomical Twilight 5:34 AM EST 6:37 PM EST
Moon 1:38 AM EST (1/25) 12:01 PM EST (1/25)
Length of Visible Light 10h 51m
Length of Day
9h 52m
Waning Crescent, 34% of the Moon is Illuminated
Jan 25
Waning Crescent
Jan 30
New
Feb 6
First Quarter
Feb 14
Full
Feb 22
Last Quarter

Hourly Weather History & Observations

Time (EST) Temp. Windchill Dew Point Humidity Pressure Visibility Wind Dir Wind Speed Gust Speed Precip Events Conditions
12:53 AM 19.9 °F 4.8 °F 3.9 °F 50% 30.08 in 10.0 mi WSW 18.4 mph 27.6 mph N/A   Clear
1:53 AM 21.0 °F 7.1 °F 3.9 °F 48% 30.04 in 10.0 mi SW 16.1 mph 26.5 mph N/A   Clear
2:53 AM 21.9 °F 7.3 °F 7.0 °F 53% 30.02 in 10.0 mi SW 18.4 mph 27.6 mph N/A   Clear
3:53 AM 23.0 °F 8.0 °F 7.0 °F 50% 29.97 in 10.0 mi SW 20.7 mph 32.2 mph N/A   Clear
4:53 AM 23.0 °F 7.6 °F 7.0 °F 50% 29.92 in 9.0 mi SW 21.9 mph 33.4 mph N/A   Clear
5:53 AM 25.0 °F 10.2 °F 9.0 °F 51% 29.89 in 10.0 mi SW 21.9 mph 31.1 mph N/A   Clear
6:53 AM 26.1 °F 11.6 °F 10.9 °F 53% 29.86 in 10.0 mi SW 21.9 mph 33.4 mph N/A   Clear
7:53 AM 27.0 °F 12.2 °F 12.9 °F 56% 29.83 in 10.0 mi SW 24.2 mph 32.2 mph N/A   Clear
8:53 AM 28.9 °F 15.4 °F 15.1 °F 56% 29.78 in 10.0 mi SW 21.9 mph 28.8 mph N/A   Clear
9:53 AM 30.0 °F 15.7 °F 17.1 °F 59% 29.75 in 9.0 mi SSW 26.5 mph 34.5 mph N/A   Clear
10:53 AM 30.9 °F 17.5 °F 19.9 °F 64% 29.71 in 10.0 mi SW 24.2 mph 35.7 mph N/A   Clear
11:53 AM 30.9 °F 18.1 °F 17.1 °F 57% 29.64 in 9.0 mi SW 21.9 mph 38.0 mph N/A   Clear
12:53 PM 30.9 °F 17.5 °F 16.0 °F 54% 29.58 in 10.0 mi SW 24.2 mph 33.4 mph N/A   Partly Cloudy
1:53 PM 30.0 °F 18.7 °F 12.9 °F 49% 29.54 in 10.0 mi SW 16.1 mph 29.9 mph N/A   Overcast
2:53 PM 28.9 °F 18.2 °F 18.0 °F 64% 29.51 in 9.0 mi WSW 13.8 mph 25.3 mph N/A   Overcast
3:02 PM 28.4 °F 16.6 °F 19.4 °F 69% 29.50 in 2.5 mi SW 16.1 mph 21.9 mph 0.00 in Snow Light Snow
3:10 PM 26.6 °F 15.2 °F 19.4 °F 74% 29.50 in 1.0 mi SW 13.8 mph 21.9 mph 0.00 in Snow Light Snow
3:32 PM 26.6 °F 16.8 °F 23.0 °F 86% 29.48 in 0.8 mi SW 10.4 mph - 0.00 in Snow Light Snow
3:53 PM 27.0 °F 16.7 °F 24.1 °F 89% 29.48 in 0.8 mi SW 11.5 mph - 0.00 in Snow Light Snow
4:13 PM 26.6 °F 16.8 °F 24.8 °F 93% 29.47 in 0.8 mi WSW 10.4 mph - 0.00 in Snow Light Snow
4:24 PM 26.6 °F 16.2 °F 24.8 °F 93% 29.47 in 0.8 mi WSW 11.5 mph - 0.00 in Snow Light Snow
4:36 PM 26.6 °F 16.2 °F 24.8 °F 93% 29.46 in 0.5 mi WSW 11.5 mph - 0.00 in Fog , Snow Light Snow
4:53 PM 26.1 °F 15.0 °F 24.1 °F 92% 29.47 in 1.0 mi West 12.7 mph 21.9 mph 0.00 in Snow Light Snow
5:05 PM 26.6 °F 14.7 °F 23.0 °F 86% 29.46 in 0.5 mi WSW 15.0 mph 23.0 mph 0.00 in Fog , Snow Snow
5:18 PM 24.8 °F 14.0 °F 21.2 °F 86% 29.46 in 1.5 mi WSW 11.5 mph 23.0 mph 0.00 in Snow Light Snow
5:34 PM 24.8 °F 12.4 °F 21.2 °F 86% 29.46 in 1.5 mi WSW 15.0 mph - 0.00 in Snow Light Snow
5:53 PM 25.0 °F 13.1 °F 21.9 °F 88% 29.47 in 1.8 mi WSW 13.8 mph - 0.00 in Snow Light Snow
6:06 PM 24.8 °F 12.9 °F 21.2 °F 86% 29.47 in 2.0 mi WSW 13.8 mph - 0.00 in Snow Light Snow
6:11 PM 24.8 °F 12.4 °F 21.2 °F 86% 29.47 in 3.0 mi WSW 15.0 mph - 0.00 in Snow Light Snow
6:19 PM 24.8 °F 11.5 °F 21.2 °F 86% 29.47 in 4.0 mi West 17.3 mph 23.0 mph 0.00 in Snow Light Snow
6:53 PM 25.0 °F 14.8 °F 19.9 °F 81% 29.48 in 9.0 mi WSW 10.4 mph - 0.00 in   Overcast
7:43 PM 24.8 °F 14.6 °F 19.4 °F 80% 29.48 in 10.0 mi West 10.4 mph 19.6 mph N/A   Overcast
7:53 PM 25.0 °F 13.6 °F 19.0 °F 78% 29.48 in 10.0 mi West 12.7 mph - N/A   Overcast
8:14 PM 24.8 °F 14.0 °F 17.6 °F 74% 29.47 in 10.0 mi WSW 11.5 mph 24.2 mph N/A   Overcast
8:53 PM 24.1 °F 12.5 °F 17.1 °F 75% 29.48 in 10.0 mi West 12.7 mph - N/A   Overcast
9:53 PM 24.1 °F 12.0 °F 17.1 °F 75% 29.47 in 10.0 mi WSW 13.8 mph - N/A   Mostly Cloudy
10:53 PM 21.9 °F 13.4 °F 16.0 °F 78% 29.47 in 10.0 mi WSW 6.9 mph - N/A   Clear
11:53 PM 21.9 °F 11.7 °F 15.1 °F 75% 29.48 in 10.0 mi West 9.2 mph - N/A   Clear